Weather History for LIRA - April, 2013

Change the Weather History Date:

Wednesday, April 3, 2013

  Actual Average Record
Temperature  
Mean Temperature 54 °F -  
Max Temperature 60 °F 66 °F 73 °F (2011)
Min Temperature 48 °F 47 °F 41 °F (1997)
Degree Days  
Heating Degree Days 11    
Growing Degree Days 4 (Base 50)    
Moisture  
Dew Point 47 °F    
Average Humidity 81    
Maximum Humidity 100    
Minimum Humidity 55    
Precipitation  
Precipitation 0.00 in 0.08 in - ()
Sea Level Pressure  
Sea Level Pressure 29.63 in    
Wind  
Wind Speed 3 mph ()    
Max Wind Speed 8 mph    
Max Gust Speed -    
Visibility 6.2 miles    
Events      
Averages and records for this station are not official NWS values.
T = Trace of Precipitation, MM = Missing Value Source: Averaged Metar Reports

Daily Weather History Graph

Daily Weather History Graph

Search for Another Location

Airport or City:

Trip Planner

Search our weather history database for the weather conditions in past years. The results will help you decide how hot, cold, wet, or windy it might be!

Date:

Astronomy

Apr. 03, 2013 Rise Set
Actual Time 6:49 AM CEST 7:37 PM CEST
Civil Twilight 6:21 AM CEST 8:05 PM CEST
Nautical Twilight 5:47 AM CEST 8:39 PM CEST
Astronomical Twilight 5:12 AM CEST 9:13 PM CEST
Moon 2:21 AM CEST (4/3) 12:25 PM CEST (4/3)
Length of Visible Light 13h 44m
Length of Day
12h 48m
Waning Gibbous, 47% of the Moon is Illuminated
Apr 3
Waning Gibbous
Apr 10
New
Apr 18
First Quarter
Apr 25
Full
May 2
Last Quarter

Hourly Weather History & Observations

Time (CEST) Temp. Dew Point Humidity Pressure Visibility Wind Dir Wind Speed Gust Speed Precip Events Conditions
12:15 AM 50.0 °F 48.2 °F 94% 29.53 in 6.2 mi NE 1.2 mph - N/A   Scattered Clouds
12:45 AM 50.0 °F 48.2 °F 94% 29.53 in 6.2 mi ENE 1.2 mph - N/A   Partly Cloudy
1:15 AM 48.2 °F 48.2 °F 100% 29.53 in 6.2 mi NE 1.2 mph - N/A   Partly Cloudy
1:45 AM 48.2 °F 46.4 °F 93% 29.53 in 6.2 mi NE 2.3 mph - N/A   Scattered Clouds
2:45 AM 48.2 °F 46.4 °F 93% 29.53 in 6.2 mi North 1.2 mph - N/A   Mostly Cloudy
3:15 AM 48.2 °F 46.4 °F 93% 29.53 in 6.2 mi West 2.3 mph - N/A   Mostly Cloudy
3:45 AM 48.2 °F 46.4 °F 93% 29.53 in 6.2 mi Calm Calm - N/A   Mostly Cloudy
4:15 AM 48.2 °F 46.4 °F 93% 29.56 in 6.2 mi Calm Calm - N/A   Mostly Cloudy
4:45 AM 48.2 °F 46.4 °F 93% 29.56 in 6.2 mi East 1.2 mph - N/A   Mostly Cloudy
5:15 AM 48.2 °F 46.4 °F 93% 29.56 in 6.2 mi East 1.2 mph - N/A   Mostly Cloudy
5:45 AM 48.2 °F 46.4 °F 93% 29.56 in 6.2 mi NE 1.2 mph - N/A   Light Drizzle
6:15 AM 48.2 °F 48.2 °F 100% 29.56 in 6.2 mi Calm Calm - N/A   Light Drizzle
6:45 AM 48.2 °F 48.2 °F 100% 29.59 in 6.2 mi Calm Calm - N/A   Light Drizzle
7:15 AM 48.2 °F 48.2 °F 100% 29.59 in 6.2 mi NE 2.3 mph - N/A   Light Drizzle
7:45 AM 48.2 °F 48.2 °F 100% 29.59 in 6.2 mi North 4.6 mph - N/A   Mostly Cloudy
8:15 AM 50.0 °F 48.2 °F 94% 29.59 in 6.2 mi ENE 3.5 mph - N/A   Mostly Cloudy
8:45 AM 50.0 °F 46.4 °F 87% 29.59 in 6.2 mi ENE 4.6 mph - N/A   Scattered Clouds
9:15 AM 51.8 °F 50.0 °F 94% 29.62 in 6.2 mi ENE 2.3 mph - N/A   Scattered Clouds
9:45 AM 51.8 °F 46.4 °F 82% 29.62 in 6.2 mi Calm Calm - N/A   Scattered Clouds
10:15 AM 53.6 °F 48.2 °F 82% 29.62 in 6.2 mi NW 3.5 mph - N/A   Scattered Clouds
10:45 AM 55.4 °F 48.2 °F 77% 29.65 in 6.2 mi NW 4.6 mph - N/A   Partly Cloudy
11:15 AM 55.4 °F 48.2 °F 77% 29.65 in 6.2 mi NW 4.6 mph - N/A   Partly Cloudy
11:45 AM 55.4 °F 46.4 °F 72% 29.65 in 6.2 mi NNE 1.2 mph - N/A   Partly Cloudy
12:15 PM 57.2 °F 46.4 °F 67% 29.65 in 6.2 mi WNW 2.3 mph - N/A   Partly Cloudy
12:45 PM 57.2 °F 48.2 °F 72% 29.65 in 6.2 mi WSW 2.3 mph - N/A   Partly Cloudy
1:15 PM 57.2 °F 48.2 °F 72% 29.65 in 6.2 mi West 4.6 mph - N/A   Scattered Clouds
1:45 PM 59.0 °F 46.4 °F 63% 29.65 in 6.2 mi WSW 8.1 mph - N/A   Scattered Clouds
2:15 PM 59.0 °F 44.6 °F 59% 29.65 in 6.2 mi West 8.1 mph - N/A   Scattered Clouds
2:45 PM 59.0 °F 44.6 °F 59% 29.65 in 6.2 mi West 6.9 mph - N/A   Scattered Clouds
3:15 PM 60.8 °F 44.6 °F 55% 29.65 in 6.2 mi West 8.1 mph - N/A   Scattered Clouds
3:45 PM 60.8 °F 44.6 °F 55% 29.65 in 6.2 mi West 8.1 mph - N/A   Partly Cloudy
4:15 PM 60.8 °F 44.6 °F 55% 29.65 in 6.2 mi WNW 5.8 mph - N/A   Partly Cloudy
4:45 PM 60.8 °F 44.6 °F 55% 29.65 in 6.2 mi West 5.8 mph - N/A   Partly Cloudy
5:15 PM 60.8 °F 46.4 °F 59% 29.68 in 6.2 mi SW 6.9 mph - N/A   Partly Cloudy
5:45 PM 59.0 °F 46.4 °F 63% 29.68 in 6.2 mi WSW 5.8 mph - N/A   Partly Cloudy
6:15 PM 59.0 °F 46.4 °F 63% 29.68 in 6.2 mi WSW 5.8 mph - N/A   Partly Cloudy
6:45 PM 57.2 °F 46.4 °F 67% 29.68 in 6.2 mi SW 8.1 mph - N/A   Partly Cloudy
7:15 PM 55.4 °F 48.2 °F 77% 29.68 in 6.2 mi WSW 5.8 mph - N/A   Partly Cloudy
7:45 PM 55.4 °F 48.2 °F 77% 29.68 in 6.2 mi West 3.5 mph - N/A   Partly Cloudy
8:15 PM 53.6 °F 48.2 °F 82% 29.71 in 6.2 mi South 3.5 mph - N/A   Partly Cloudy
8:45 PM 51.8 °F 48.2 °F 88% 29.71 in 6.2 mi South 4.6 mph - N/A   Partly Cloudy
9:15 PM 51.8 °F 48.2 °F 88% 29.74 in 6.2 mi South 3.5 mph - N/A   Partly Cloudy
9:45 PM 50.0 °F 46.4 °F 87% 29.74 in 6.2 mi South 4.6 mph - N/A   Partly Cloudy
10:15 PM 50.0 °F 46.4 °F 87% 29.74 in 6.2 mi South 3.5 mph - N/A   Partly Cloudy
10:45 PM 48.2 °F 46.4 °F 93% 29.74 in 6.2 mi SSE 4.6 mph - N/A   Partly Cloudy
11:15 PM 48.2 °F 46.4 °F 93% 29.77 in 6.2 mi SSE 4.6 mph - N/A   Partly Cloudy
11:45 PM 48.2 °F 46.4 °F 93% 29.77 in 6.2 mi East 4.6 mph - N/A   Partly Cloudy